This demonstration page uses our WeatherBlox Daily Observations layout. Learn more.

Left ArrowRight Arrow

38.89511, -77.03637

Hourly Observations for March 9, 2021

Temp ( °F °C ) Dew Point ( °F °C ) Humidity (%) Winds ( mph kmh ) Pressure ( in mb ) Visibility ( mi km ) Precip ( " mm )
12:52 am 00:52 Mostly Clear 40 4.4 29 -1.7 65 65 S 8 13 30.43 1031 10 16.0934 0 0
1:52 am 01:52 Mostly Clear 40 4.4 29 -1.7 65 65 S 8 13 30.42 1030 10 16.0934 0 0
2:52 am 02:52 Mostly Clear 39 3.9 28 -2.2 65 65 S 9 15 30.4 1030 10 16.0934 0 0
3:52 am 03:52 Mostly Cloudy 38 3.3 26 -3.3 62 62 SSW 6 9 30.4 1029 10 16.0934 0 0
4:52 am 04:52 Mostly Cloudy 38 3.3 25 -3.9 60 60 SSW 7 11 30.4 1030 10 16.0934 0 0
5:52 am 05:52 Mostly Cloudy 39 3.9 24 -4.4 55 55 SSW 7 11 30.41 1030 10 16.0934 0 0
6:52 am 06:52 Partly Cloudy 38 3.3 23 -5 55 55 SSW 6 9 30.42 1030 10 16.0934 0 0
7:52 am 07:52 Mostly Cloudy 44 6.7 24 -4.4 45 45 SSW 7 11 30.43 1030 10 16.0934 0 0
8:52 am 08:52 Partly Cloudy 45 7.2 29 -1.7 54 54 S 9 15 30.43 1031 10 16.0934 0 0
9:52 am 09:52 Mostly Cloudy 52 11.1 28 -2.2 40 40 S 10 17 30.43 1030 10 16.0934 0 0
10:52 am 10:52 Mostly Cloudy 56 13.3 29 -1.7 36 36 S 13 20 30.42 1030 10 16.0934 0 0
11:52 am 11:52 Mostly Cloudy 67 19.4 30 -1.1 25 25 SSW 8 13 30.4 1030 10 16.0934 0 0
12:52 pm 12:52 Cloudy 69 20.6 30 -1.1 23 23 VRB 6 9 30.38 1029 10 16.0934 0 0
1:52 pm 13:52 Cloudy 71 21.7 30 -1.1 22 22 WNW 12 19 30.35 1028 10 16.0934 0 0
2:52 pm 14:52 Cloudy 70 21.1 30 -1.1 23 23 NW 10 17 30.34 1028 10 16.0934 0 0
3:52 pm 15:52 Mostly Cloudy 71 21.7 30 -1.1 22 22 W 10 17 30.33 1027 10 16.0934 0 0
4:52 pm 16:52 Mostly Cloudy 67 19.4 31 -0.6 26 26 S 6 9 30.34 1027 10 16.0934 0 0
5:52 pm 17:52 Mostly Cloudy 63 17.2 31 -0.6 30 30 S 6 9 30.34 1028 10 16.0934 0 0
6:52 pm 18:52 Partly Cloudy 63 17.2 31 -0.6 30 30 SSW 3 6 30.36 1028 10 16.0934 0 0
7:52 pm 19:52 Partly Cloudy 58 14.4 34 1.1 41 41 N 3 6 30.37 1028 10 16.0934 0 0
8:52 pm 20:52 Mostly Cloudy 55 12.8 36 2.2 49 49 Calm 30.37 1029 10 16.0934 0 0
9:52 pm 21:52 Mostly Cloudy 52 11.1 39 3.9 61 61 Calm 30.38 1029 10 16.0934 0 0
10:52 pm 22:52 Mostly Cloudy 50 10 39 3.9 66 66 Calm 30.38 1029 10 16.0934 0 0
11:52 pm 23:52 Mostly Cloudy 48 8.9 39 3.9 71 71 Calm 30.39 1029 10 16.0934 0 0

Powered by AerisWeather